STARLINK-2053 (47663 NORAD) Tracking and Keplerian Element Data

This shows tracking and keplerian element data for the satellite.

Feedback or suggestion? Click here.




ElementValue
Catalog47663
NameSTARLINK-2053
Epoch Orbit282
Epoch Day60.16668981
Epoch Year2021
RAAN36.8151
Inclination53.05
Eccentricity6.94E-05
Argument of Perigee95.8564
Mean Anonmoly32.368
Mean Motion15.86841682
Decay Rate0.00056558
L11 47663U 21012AV 21060.16668981 .00056558 00000-0 21726-3 0 9996
L22 47663 53.0500 36.8151 0000694 95.8564 32.3680 15.86841682 2824

Live tracking and technical data element details for STARLINK-2053 (NORAD 47663). STARLINK-2053 can be tracked NOW for your location showing map with azimuth and elevation plus other details from your city location.

Track the satellite on the map from your city or location and see movement details for azimuth, elevation, latitude, longitude, range, height, and movement on the map or in text.







IsCatalogInMostPopularTable: catalog: 47663, numindb: 4
Update: records affected: 1



GetName: 47663 STARLINK-2053

Hit Count: updated at: Mon, 01 Mar 2021 16:02:51 GMT